Location: ??????????
(54.4061°N, 22.6114°E)
Time: 19:18:57
(UTC+00:00)

Cosmos 2058 - Pass Details

Date: 23 October 2019
Orbit: 563 x 583 km, 82.5° (Epoch: 12 November)

Event Time Altitude Azimuth Distance (km) Brightness Sun altitude
Rises 15:55:27 0° 355° (N) 2,824 6.4 -6.6°
Reaches altitude 10° 15:58:01 10° 10° (N) 1,919 5.4 -7.0°
Maximum altitude 16:01:29 24° 65° (ENE) 1,224 4.0 -7.5°
Drops below altitude 10° 16:04:57 10° 120° (ESE) 1,902 5.1 -8.0°
Sets 16:07:28 0° 135° (SE) 2,794 6.1 -8.4°
